Погода в Кантемировке

Россия / Воронежская область     49°42′07″N   39°51′14″E
темп.,
°C
ветер,
м/с
пор.,
м/с
влажн.,
%
обл.,
%
осадки,
мм/ч
давл.,
гПа
погр.,
м
14 апреля, ср
ср1400:00+11ссв0085100 0.0 102210
03:00+10ссв348945 0.0 102065
06:00+9в386598 0.0 1019154
09:00+14юв584784 0.0 1018396
12:00+19юв6824100 0.0 10171425
15:00+18вюв573596 0.0 10161173
18:00+17вюв4940100 0.0 1015265
21:00+14вюв3852100 0.0 1015174
15 апреля, чт
чт1500:00+12ююв3562100 0.0 1014101
03:00+10ююв3369100 0.0 101445
06:00+8юз368935 0.0 1015135
09:00+13юз45626 0.0 1015620
12:00+16юз45465 0.0 10151615
15:00+18ююз453974 0.0 10142192
18:00+16ююз3442100 0.0 101484
21:00+14ююз3860100 0.0 1015315
16 апреля, пт
пт1600:00+10юз377862 0.0 1015166
03:00+9ююз248616 0.0 101674
06:00+8ююз22901 0.0 101625
09:00+12ююз336497 0.0 1017762
12:00+16ю57455 0.1 10172000
15:00+18ю563483 0.1 10162573
18:00+16з3444100 0.0 1016376
21:00+12з4656100 0.0 1017234
17 апреля, сб
сб1700:00+10з4777100 0.9 1018347
03:00+7зюз3490100 11.3 1019306
06:00+7з2490100 5.8 1019255
09:00+9з3381100 5.9 1019727
12:00+10зюз346990 0.4 10201021
15:00+11з4467100 2.4 1020717
18:00+12ююз245452 0.3 1020758
21:00+8ююз2274100 0.5 102127
18 апреля, вс
вс1800:00+8св2376100 0.1 102275
03:00+8в227917 0.1 102139
06:00+6всв2284100 0.0 102126
09:00+10в2368100 0.2 1021505
12:00+13в335295 0.3 10211724
15:00+14всв3350100 1.1 10211435
18:00+12вюв3464100 1.9 1021268
21:00+10св5780100 3.2 1023205